This demonstration page uses our WeatherBlox Daily Observations layout. Learn more.

Left ArrowRight Arrow

44.8408, -93.29828

Hourly Observations for April 8, 2022

Temp ( °F °C ) Dew Point ( °F °C ) Humidity (%) Winds ( mph kmh ) Pressure ( in mb ) Visibility ( mi km ) Precip ( " mm )
12:53 am 00:53 Cloudy 31 -0.6 27 -2.8 85 85 N 14 22 29.86 1011 9 14 0.00 0.00
1:13 am 01:13 Cloudy with Light Snow 31 -0.6 27 -2.8 85 85 N 14 22 29.89 1012 10 16 0.00 0.00
1:53 am 01:53 Cloudy 32 0 26 -3.3 79 79 N 16 26 29.86 1011 10 16 0.00 0.00
2:53 am 02:53 Cloudy with Light Snow 32 0 27 -2.8 82 82 N 15 24 29.87 1011 7 11 0.00 0.00
3:53 am 03:53 Cloudy with Light Snow 31 -0.6 27 -2.8 85 85 N 12 19 29.88 1012 4 6 0.00 0.00
4:08 am 04:08 Cloudy with Light Snow 31 -0.6 28 -2.2 89 89 NNW 12 19 29.90 1012 3 5 0.00 0.00
4:43 am 04:43 Cloudy 32 0 27 -2.8 82 82 N 16 26 29.90 1012 10 16 0.00 0.00
4:53 am 04:53 Cloudy 32 0 27 -2.8 82 82 N 15 24 29.88 1012 10 16 0.00 0.00
5:53 am 05:53 Cloudy 32 0 25 -3.9 75 75 N 14 22 29.88 1012 10 16 0.00 0.00
6:53 am 06:53 Cloudy 32 0 23 -5 69 69 N 15 24 29.90 1012 10 16 0.00 0.00
7:53 am 07:53 Mostly Cloudy 33 0.6 24 -4.4 70 70 NNW 15 24 29.91 1013 10 16 0.00 0.00
8:53 am 08:53 Mostly Cloudy 32 0 21 -6.1 64 64 N 20 31 29.92 1013 10 16 0.00 0.00
9:53 am 09:53 Partly Cloudy 33 0.6 22 -5.6 64 64 N 17 28 29.93 1013 10 16 0.00 0.00
10:53 am 10:53 Mostly Sunny 38 3.3 24 -4.4 57 57 N 20 31 29.92 1013 10 16 0.00 0.00
11:53 am 11:53 Mostly Sunny 41 5 23 -5 49 49 NNW 20 31 29.91 1013 10 16 0.00 0.00
12:53 pm 12:53 Mostly Sunny 43 6.1 21 -6.1 42 42 NNW 22 35 29.90 1013 10 16 0.00 0.00
1:53 pm 13:53 Mostly Sunny 45 7.2 20 -6.7 37 37 N 18 30 29.90 1013 10 16 0.00 0.00
2:53 pm 14:53 Mostly Sunny 46 7.8 19 -7.2 34 34 N 20 31 29.88 1012 10 16 0.00 0.00
3:53 pm 15:53 Mostly Sunny 48 8.9 18 -7.8 30 30 NNW 17 28 29.87 1012 10 16 0.00 0.00
4:53 pm 16:53 Mostly Sunny 48 8.9 16 -8.9 28 28 N 13 20 29.87 1012 10 16 0.00 0.00
5:53 pm 17:53 Mostly Sunny 47 8.3 14 -10 26 26 NNW 17 28 29.87 1012 10 16 0.00 0.00
6:53 pm 18:53 Sunny 45 7.2 14 -10 29 29 NNW 15 24 29.88 1012 10 16 0.00 0.00
7:53 pm 19:53 Clear 42 5.6 14 -10 32 32 NW 10 17 29.89 1012 10 16 0.00 0.00
8:53 pm 20:53 Clear 40 4.4 13 -10.6 33 33 NNW 12 19 29.91 1013 10 16 0.00 0.00
9:53 pm 21:53 Clear 38 3.3 14 -10 37 37 NNW 12 19 29.91 1013 10 16 0.00 0.00
10:53 pm 22:53 Clear 37 2.8 15 -9.4 41 41 NNW 10 17 29.91 1013 10 16 0.00 0.00
11:53 pm 23:53 Clear 35 1.7 15 -9.4 44 44 NNW 9 15 29.91 1013 10 16 0.00 0.00

Powered by AerisWeather